Regional Weather Roundup
Issued by NWS

Home | Current Version | Previous Version | Graphics & Text | Print | Product List | Glossary On
Versions: 1 2 3 4 5 6 7 8 9 10 11 12 13 14 15 16 17 18 19 20 21 22 23 24 25 26 27 28 29 30 31 32 33 34 35 36 37 38 39 40 41 42 43 44 45 46 47 48 49 50
415
ASUS45 KABQ 212301
RWRNM
NEW MEXICO REGIONAL WEATHER ROUNDUP
NATIONAL WEATHER SERVICE ALBUQUERQUE NM
500 PM MDT THU MAY 21 2015

NOTE: "FAIR" MEANS FEW OR NO CLOUDS BELOW 12,000 FEET AGL WITH NO
       SIGNIFICANT WEATHER OR OBSTRUCTIONS TO VISION.

      THIS PRODUCT IS RELEASED AS TWO VERSIONS.  ONE VERSION NEAR
      THE TOP OF THE HOUR CONTAINING PRELIMINARY DATA FROM ALBUQUERQUE
      AND OTHER STATIONS.  A FINAL VERSION WITH ADDITIONAL DATA IS
      ISSUED ABOUT 10 MINUTES AFTER THE HOUR.

NMZ501-503-504-510>518-220000-
NORTHWEST PLATEAU/NORTHCENTRAL MOUNTAINS

CITY           SKY/WX    TMP DP  RH WIND       PRES   REMARKS
FARMINGTON     SUNNY     67  35  30 SE17      29.92F
SANTA FE       CLOUDY    54  41  61 SE17G24   30.10F
TAOS           CLOUDY    57  39  51 SW14      30.10F THUNDER

$$
NMZ402-403-502-505>509-220000-
WESTCENTRAL MOUNTAINS/SOUTHWEST MOUNTAINS

CITY           SKY/WX    TMP DP  RH WIND       PRES   REMARKS
GALLUP         MOSUNNY   69  20  15 S23G39    29.95F
GRANTS         PTSUNNY   63  42  46 SE28G37   30.02F
SILVER CITY      N/A     70  25  18 W20G40    30.04R

$$
NMZ407-409-411-412-220000-
SOUTHERN DESERTS

CITY           SKY/WX    TMP DP  RH WIND       PRES   REMARKS
LORDSBURG      FAIR      75  30  19 S13G26    29.92F
DEMING         CLOUDY    80  23  12 SW16G25   29.90F
HOLLOMAN AFB   PTSUNNY   78  49  36 NW22      29.90F
ALAMOGORDO     PTSUNNY   77  45  31 S16G22    29.92F
T OR C         CLOUDY    65  55  70 W15       29.94S

$$
NMZ519>523-220000-
CENTRAL VALLEYS/CENTRAL HIGHLANDS

CITY           SKY/WX    TMP DP  RH WIND       PRES   REMARKS
ALBUQUERQUE    LGT RAIN  57  44  62 E24G35    30.02F
DOUBLE EAGLE   TSTM      48  46  93 NW18      30.10R
CLINES CORNERS FOG       43  41  93 E14G23    30.15F VSB 1/4
BELEN          TSTM      57  49  74 SE21      30.02R
SOCORRO        NOT AVBL

$$
NMZ524>526-539-540-220000-
SOUTHCENTRAL MOUNTAINS

CITY           SKY/WX    TMP DP  RH WIND       PRES   REMARKS
RUIDOSO        NOT AVBL

$$
NMZ527>531-220000-
NORTHEAST HIGHLANDS/NORTHEAST PLAINS

CITY           SKY/WX    TMP DP  RH WIND       PRES   REMARKS
LAS VEGAS      CLOUDY    43  41  93 S7        30.19F
RATON          NOT AVBL
CLAYTON        LGT RAIN  48  44  86 S13       30.21F

$$
NMZ532>537-220000-
EASTCENTRAL PLAINS

CITY           SKY/WX    TMP DP  RH WIND       PRES   REMARKS
TUCUMCARI      CLOUDY    50  47  89 E12       30.17F
CANNON AFB     NOT AVBL
CLOVIS AIRPORT CLOUDY    46  45  93 E7        30.21F

$$
NMZ028-029-538-220000-
SOUTHEAST PLAINS

CITY           SKY/WX    TMP DP  RH WIND       PRES   REMARKS
ROSWELL        LGT RAIN  52  50  93 SE13      30.14F FOG
ARTESIA        CLOUDY    52  52 100 SE9       30.14F FOG
CARLSBAD       CLOUDY    55  50  83 E9        30.13F
HOBBS          CLOUDY    50  50 100 E12       30.17F FOG


$$



USA.gov is the U.S. government's official web portal to all federal, state and local government web resources and services.